Time,TemperatureF,DewpointF,PressureIn,WindDirection,WindDirectionDegrees,WindSpeedMPH,WindSpeedGustMPH,Humidity,HourlyPrecipIn,Conditions,Clouds,dailyrainin,SoftwareType,DateUTC
2013-04-18 00:12:00,72.0,-99.9,-100.00,SE,137,18.0,-999.0,107,0.00,,,-99.99,,2013-04-18 05:12:00,
2013-04-18 00:22:00,72.0,-99.9,-100.00,SE,137,18.0,-999.0,107,0.00,,,-99.99,,2013-04-18 05:22:00,
2013-04-18 00:33:00,72.0,-99.9,-100.00,SE,137,18.0,-999.0,107,0.00,,,-99.99,,2013-04-18 05:33:00,
2013-04-18 00:42:00,72.0,-99.9,-100.00,SE,137,18.0,-999.0,107,0.00,,,-99.99,,2013-04-18 05:42:00,
2013-04-18 01:12:00,72.0,-99.9,-100.00,SE,141,15.0,-999.0,104,0.00,,,-99.99,,2013-04-18 06:12:00,
2013-04-18 01:22:00,72.0,-99.9,-100.00,SE,141,15.0,-999.0,104,0.00,,,-99.99,,2013-04-18 06:22:00,
2013-04-18 01:32:00,72.0,-99.9,-100.00,SE,141,15.0,-999.0,104,0.00,,,-99.99,,2013-04-18 06:32:00,
2013-04-18 01:42:00,72.0,-99.9,-100.00,SE,141,15.0,-999.0,104,0.00,,,-99.99,,2013-04-18 06:42:00,
2013-04-18 02:22:00,72.0,-99.9,-100.00,SE,132,14.0,-999.0,104,0.00,,,-99.99,,2013-04-18 07:22:00,
2013-04-18 02:32:00,72.0,-99.9,-100.00,SE,132,14.0,-999.0,104,0.00,,,-99.99,,2013-04-18 07:32:00,
2013-04-18 02:42:00,72.0,-99.9,-100.00,SE,132,14.0,-999.0,104,0.00,,,-99.99,,2013-04-18 07:42:00,
2013-04-18 03:12:00,72.0,-99.9,-100.00,SE,130,17.0,-999.0,102,0.00,,,-99.99,,2013-04-18 08:12:00,
2013-04-18 03:22:00,72.0,-99.9,-100.00,SE,130,17.0,-999.0,102,0.00,,,-99.99,,2013-04-18 08:22:00,
2013-04-18 03:32:00,72.0,-99.9,-100.00,SE,130,17.0,-999.0,102,0.00,,,-99.99,,2013-04-18 08:32:00,
2013-04-18 03:42:00,72.0,-99.9,-100.00,SE,130,17.0,-999.0,102,0.00,,,-99.99,,2013-04-18 08:42:00,
2013-04-18 04:12:00,72.0,72.0,-100.00,SE,132,17.0,-999.0,100,0.00,,,-99.99,,2013-04-18 09:12:00,
2013-04-18 04:22:00,72.0,72.0,-100.00,SE,132,17.0,-999.0,100,0.00,,,-99.99,,2013-04-18 09:22:00,
2013-04-18 04:33:00,72.0,72.0,-100.00,SE,132,17.0,-999.0,100,0.00,,,-99.99,,2013-04-18 09:33:00,
2013-04-18 04:43:00,72.0,72.0,-100.00,SE,132,17.0,-999.0,100,0.00,,,-99.99,,2013-04-18 09:43:00,
2013-04-18 05:12:00,72.0,70.0,-100.00,SE,133,17.0,-999.0,96,0.00,,,-99.99,,2013-04-18 10:12:00,
2013-04-18 05:23:00,72.0,70.0,-100.00,SE,133,17.0,-999.0,96,0.00,,,-99.99,,2013-04-18 10:23:00,
2013-04-18 05:32:00,72.0,70.0,-100.00,SE,133,17.0,-999.0,96,0.00,,,-99.99,,2013-04-18 10:32:00,
2013-04-18 05:42:00,72.0,70.0,-100.00,SE,133,17.0,-999.0,96,0.00,,,-99.99,,2013-04-18 10:42:00,
2013-04-18 06:12:00,71.0,71.0,-100.00,SE,130,18.0,-999.0,98,0.00,,,-99.99,,2013-04-18 11:12:00,
2013-04-18 06:22:00,71.0,71.0,-100.00,SE,130,18.0,-999.0,98,0.00,,,-99.99,,2013-04-18 11:22:00,
2013-04-18 06:32:00,71.0,71.0,-100.00,SE,130,18.0,-999.0,98,0.00,,,-99.99,,2013-04-18 11:32:00,
2013-04-18 06:42:00,71.0,71.0,-100.00,SE,130,18.0,-999.0,98,0.00,,,-99.99,,2013-04-18 11:42:00,
2013-04-18 07:12:00,71.0,-99.9,-100.00,SE,130,16.0,-999.0,101,0.00,,,-99.99,,2013-04-18 12:12:00,
2013-04-18 07:23:00,71.0,-99.9,-100.00,SE,130,16.0,-999.0,101,0.00,,,-99.99,,2013-04-18 12:23:00,
2013-04-18 07:32:00,71.0,-99.9,-100.00,SE,130,16.0,-999.0,101,0.00,,,-99.99,,2013-04-18 12:32:00,
2013-04-18 07:42:00,71.0,-99.9,-100.00,SE,130,16.0,-999.0,101,0.00,,,-99.99,,2013-04-18 12:42:00,
2013-04-18 08:13:00,71.0,-99.9,-100.00,SE,133,14.0,-999.0,103,0.00,,,-99.99,,2013-04-18 13:13:00,
2013-04-18 08:22:00,71.0,-99.9,-100.00,SE,133,14.0,-999.0,103,0.00,,,-99.99,,2013-04-18 13:22:00,
2013-04-18 08:33:00,71.0,-99.9,-100.00,SE,133,14.0,-999.0,103,0.00,,,-99.99,,2013-04-18 13:33:00,
2013-04-18 08:43:00,71.0,-99.9,-100.00,SE,133,14.0,-999.0,103,0.00,,,-99.99,,2013-04-18 13:43:00,
2013-04-18 09:13:00,72.0,-99.9,-100.00,SE,129,14.0,-999.0,103,0.00,,,-99.99,,2013-04-18 14:13:00,
2013-04-18 09:22:00,72.0,-99.9,-100.00,SE,129,14.0,-999.0,103,0.00,,,-99.99,,2013-04-18 14:22:00,
2013-04-18 09:33:00,72.0,-99.9,-100.00,SE,129,14.0,-999.0,103,0.00,,,-99.99,,2013-04-18 14:33:00,
2013-04-18 09:43:00,72.0,-99.9,-100.00,SE,129,14.0,-999.0,103,0.00,,,-99.99,,2013-04-18 14:43:00,
2013-04-18 10:12:00,72.0,-99.9,-100.00,SE,125,16.0,-999.0,102,0.00,,,-99.99,,2013-04-18 15:12:00,
2013-04-18 10:23:00,72.0,-99.9,-100.00,SE,125,16.0,-999.0,102,0.00,,,-99.99,,2013-04-18 15:23:00,
2013-04-18 10:33:00,72.0,-99.9,-100.00,SE,125,16.0,-999.0,102,0.00,,,-99.99,,2013-04-18 15:33:00,
2013-04-18 10:43:00,72.0,-99.9,-100.00,SE,125,16.0,-999.0,102,0.00,,,-99.99,,2013-04-18 15:43:00,
2013-04-18 11:13:00,72.0,-99.9,-100.00,SE,125,17.0,-999.0,104,0.00,,,-99.99,,2013-04-18 16:13:00,
2013-04-18 11:23:00,72.0,-99.9,-100.00,SE,125,17.0,-999.0,104,0.00,,,-99.99,,2013-04-18 16:23:00,
2013-04-18 11:33:00,72.0,-99.9,-100.00,SE,125,17.0,-999.0,104,0.00,,,-99.99,,2013-04-18 16:33:00,
2013-04-18 11:43:00,72.0,-99.9,-100.00,SE,125,17.0,-999.0,104,0.00,,,-99.99,,2013-04-18 16:43:00,
2013-04-18 12:13:00,73.0,-99.9,-100.00,SE,130,15.0,-999.0,104,0.00,,,-99.99,,2013-04-18 17:13:00,
2013-04-18 12:22:00,73.0,-99.9,-100.00,SE,130,15.0,-999.0,104,0.00,,,-99.99,,2013-04-18 17:22:00,
2013-04-18 12:33:00,73.0,-99.9,-100.00,SE,130,15.0,-999.0,104,0.00,,,-99.99,,2013-04-18 17:33:00,
2013-04-18 12:43:00,73.0,-99.9,-100.00,SE,130,15.0,-999.0,104,0.00,,,-99.99,,2013-04-18 17:43:00,
2013-04-18 13:13:00,73.0,-99.9,-100.00,SE,131,15.0,-999.0,105,0.00,,,-99.99,,2013-04-18 18:13:00,
2013-04-18 13:23:00,73.0,-99.9,-100.00,SE,131,15.0,-999.0,105,0.00,,,-99.99,,2013-04-18 18:23:00,
2013-04-18 13:33:00,73.0,-99.9,-100.00,SE,131,15.0,-999.0,105,0.00,,,-99.99,,2013-04-18 18:33:00,
2013-04-18 13:43:00,73.0,-99.9,-100.00,SE,131,15.0,-999.0,105,0.00,,,-99.99,,2013-04-18 18:43:00,
2013-04-18 14:22:00,73.0,-99.9,-100.00,SE,132,15.0,-999.0,107,0.00,,,-99.99,,2013-04-18 19:22:00,
2013-04-18 14:33:00,73.0,-99.9,-100.00,SE,132,15.0,-999.0,107,0.00,,,-99.99,,2013-04-18 19:33:00,
2013-04-18 14:43:00,73.0,-99.9,-100.00,SE,132,15.0,-999.0,107,0.00,,,-99.99,,2013-04-18 19:43:00,
2013-04-18 15:12:00,74.0,-99.9,-100.00,SE,134,16.0,-999.0,108,-99.99,,,-99.99,,2013-04-18 20:12:00,
2013-04-18 15:23:00,74.0,-99.9,-100.00,SE,134,16.0,-999.0,108,0.00,,,-99.99,,2013-04-18 20:23:00,
2013-04-18 15:33:00,74.0,-99.9,-100.00,SE,134,16.0,-999.0,108,0.00,,,-99.99,,2013-04-18 20:33:00,
2013-04-18 15:43:00,74.0,-99.9,-100.00,SE,134,16.0,-999.0,108,0.00,,,-99.99,,2013-04-18 20:43:00,
2013-04-18 16:12:00,74.0,-99.9,-100.00,SE,139,18.0,-999.0,108,-99.99,,,-99.99,,2013-04-18 21:12:00,
2013-04-18 16:22:00,74.0,-99.9,-100.00,SE,139,18.0,-999.0,108,0.00,,,-99.99,,2013-04-18 21:22:00,
2013-04-18 16:33:00,74.0,-99.9,-100.00,SE,139,18.0,-999.0,108,0.00,,,-99.99,,2013-04-18 21:33:00,
2013-04-18 16:43:00,74.0,-99.9,-100.00,SE,139,18.0,-999.0,108,0.00,,,-99.99,,2013-04-18 21:43:00,
2013-04-18 17:13:00,74.0,-99.9,-100.00,SE,133,19.0,-999.0,110,0.00,,,-99.99,,2013-04-18 22:13:00,
2013-04-18 17:23:00,74.0,-99.9,-100.00,SE,133,19.0,-999.0,110,0.00,,,-99.99,,2013-04-18 22:23:00,
2013-04-18 17:33:00,74.0,-99.9,-100.00,SE,133,19.0,-999.0,110,0.00,,,-99.99,,2013-04-18 22:33:00,
2013-04-18 17:42:00,74.0,-99.9,-100.00,SE,133,19.0,-999.0,110,0.00,,,-99.99,,2013-04-18 22:42:00,
2013-04-18 18:12:00,74.0,-99.9,-100.00,SE,139,18.0,-999.0,111,-99.99,,,-99.99,,2013-04-18 23:12:00,
2013-04-18 18:22:00,74.0,-99.9,-100.00,SE,139,18.0,-999.0,111,0.00,,,-99.99,,2013-04-18 23:22:00,
2013-04-18 18:32:00,74.0,-99.9,-100.00,SE,139,18.0,-999.0,111,0.00,,,-99.99,,2013-04-18 23:32:00,
2013-04-18 18:42:00,74.0,-99.9,-100.00,SE,139,18.0,-999.0,111,0.00,,,-99.99,,2013-04-18 23:42:00,
2013-04-18 19:12:00,74.0,-99.9,-100.00,SE,133,18.0,-999.0,112,0.00,,,-99.99,,2013-04-19 00:12:00,
2013-04-18 19:22:00,74.0,-99.9,-100.00,SE,133,18.0,-999.0,112,0.00,,,-99.99,,2013-04-19 00:22:00,
2013-04-18 19:32:00,74.0,-99.9,-100.00,SE,133,18.0,-999.0,112,0.00,,,-99.99,,2013-04-19 00:32:00,
2013-04-18 19:42:00,74.0,-99.9,-100.00,SE,133,18.0,-999.0,112,0.00,,,-99.99,,2013-04-19 00:42:00,
2013-04-18 20:11:00,74.0,-99.9,-100.00,SE,130,20.0,-999.0,116,0.00,,,-99.99,,2013-04-19 01:11:00,
2013-04-18 20:22:00,74.0,-99.9,-100.00,SE,130,20.0,-999.0,116,0.00,,,-99.99,,2013-04-19 01:22:00,
2013-04-18 20:32:00,74.0,-99.9,-100.00,SE,130,20.0,-999.0,116,0.00,,,-99.99,,2013-04-19 01:32:00,
2013-04-18 20:42:00,74.0,-99.9,-100.00,SE,130,20.0,-999.0,116,0.00,,,-99.99,,2013-04-19 01:42:00,
2013-04-18 21:11:00,74.0,-99.9,-100.00,SE,138,22.0,-999.0,118,0.00,,,-99.99,,2013-04-19 02:11:00,
2013-04-18 21:22:00,74.0,-99.9,-100.00,SE,138,22.0,-999.0,118,0.00,,,-99.99,,2013-04-19 02:22:00,
2013-04-18 21:32:00,74.0,-99.9,-100.00,SE,138,22.0,-999.0,118,0.00,,,-99.99,,2013-04-19 02:32:00,
2013-04-18 21:42:00,74.0,-99.9,-100.00,SE,138,22.0,-999.0,118,0.00,,,-99.99,,2013-04-19 02:42:00,
2013-04-18 22:12:00,74.0,-99.9,-100.00,SE,146,20.0,-999.0,119,0.00,,,-99.99,,2013-04-19 03:12:00,
2013-04-18 22:22:00,74.0,-99.9,-100.00,SE,146,20.0,-999.0,119,0.00,,,-99.99,,2013-04-19 03:22:00,
2013-04-18 22:33:00,74.0,-99.9,-100.00,SE,146,20.0,-999.0,119,0.00,,,-99.99,,2013-04-19 03:33:00,
2013-04-18 22:43:00,74.0,-99.9,-100.00,SE,146,20.0,-999.0,119,0.00,,,-99.99,,2013-04-19 03:43:00,
2013-04-18 23:13:00,74.0,-99.9,-100.00,SSE,154,19.0,-999.0,121,0.00,,,-99.99,,2013-04-19 04:13:00,
2013-04-18 23:24:00,74.0,-99.9,-100.00,SSE,154,19.0,-999.0,121,0.00,,,-99.99,,2013-04-19 04:24:00,
2013-04-18 23:33:00,74.0,-99.9,-100.00,SSE,154,19.0,-999.0,121,0.00,,,-99.99,,2013-04-19 04:33:00,
2013-04-18 23:43:00,74.0,-99.9,-100.00,SSE,154,19.0,-999.0,121,0.00,,,-99.99,,2013-04-19 04:43:00,